Regional Weather Roundup
Issued by NWS

Home | Current Version | Previous Version | Graphics & Text | Print | Product List | Glossary On
Versions: 1 2 3 4 5 6 7 8 9 10 11 12 13 14 15 16 17 18 19 20 21 22 23 24 25 26 27 28 29 30 31 32 33 34 35 36 37 38 39 40 41 42 43 44 45 46 47 48 49 50
000
ASUS43 KBIS 211820
RWRND

NORTH DAKOTA REGIONAL WEATHER ROUNDUP
NATIONAL WEATHER SERVICE BISMARCK ND
100 PM CDT SUN SEP 21 2014

NOTE: "FAIR" INDICATES FEW OR NO CLOUDS BELOW 12,000 FEET WITH NO
SIGNIFICANT WEATHER AND/OR OBSTRUCTIONS TO VISIBILITY.


NDZ001>003-009>011-017-211900-
NORTHWEST NORTH DAKOTA

CITY           SKY/WX    TMP DP  RH WIND       PRES   REMARKS
WILLISTON      SUNNY     68  41  37 S8        30.28F
6HR MIN TEMP:  37; 6HR MAX TEMP:  68;

MINOT          SUNNY     68  43  40 W6        30.26S
MINOT AFB      SUNNY     66  44  43 NW2       30.26S
$$

NDZ018>021-031>035-040>046-211900-
SOUTHWEST NORTH DAKOTA

CITY           SKY/WX    TMP DP  RH WIND       PRES   REMARKS
BISMARCK       SUNNY     70  45  40 NW7       30.29F
6HR MIN TEMP:  46; 6HR MAX TEMP:  70;

DICKINSON      SUNNY     67  38  34 NW3       30.30F
GARRISON         N/A     68  43  40 NW6       30.28S
6HR MIN TEMP:  44; 6HR MAX TEMP:  68;

HETTINGER ARPT SUNNY     66  37  34 VRB3      30.33S
$$

NDZ004>008-012>016-024-026-027-054-211900-
NORTHEAST NORTH DAKOTA

CITY           SKY/WX    TMP DP  RH WIND       PRES   REMARKS
GRAND FORKS    PTSUNNY   63  52  67 N10       30.23S
GRND FRKS AFB  PTSUNNY   61  52  72 NE13      30.23F
DEVILS LAKE    PTSUNNY   63  46  55 NW10      30.23S
$$

NDZ022-023-025-028>030-036>039-047>053-211900-
SOUTHEAST NORTH DAKOTA

CITY           SKY/WX    TMP DP  RH WIND       PRES   REMARKS
FARGO          MOSUNNY   63  52  67 N8        30.23S
6HR MIN TEMP:  50; 6HR MAX TEMP:  63;

JAMESTOWN      SUNNY     64  49  57 NW12      30.25F
$$



USA.gov is the U.S. government's official web portal to all federal, state and local government web resources and services.